Temperature
19 20 21 22 21 20 20 19 19 20 20 21 20 19 20 20 20 20 21 21 22 22 21 21 21 21 20 20 20 20 19 19 19 18 18 18 18 18 17 17 17 17 16 16
21 21 22 22 21 21 21 20 20 21 20 20 20 20 20 20 20 20 20 21 21 21 21 21 21 20 20 20 19 19 19 19 18 18 18 18 17 17 17 16 16 16 16 16
19 21 22 21 21 21 21 20 20 21 21 19 19 19 19 19 20 20 20 21 21 21 21 20 20 20 20 19 19 19 19 18 18 18 17 17 17 16 16 16 16 16 15 15
17 20 21 20 20 20 20 20 19 20 19 19 19 20 20 20 20 20 21 21 21 20 20 20 20 19 19 19 19 18 18 18 17 17 17 17 16 16 15 15 15 15 15 15
15 18 20 20 20 19 20 20 19 19 18 18 18 19 19 20 20 21 21 21 20 20 20 19 19 19 19 19 18 18 18 17 17 17 17 16 16 15 15 15 15 15 15 14
15 18 19 20 20 19 20 20 19 18 17 17 18 18 18 19 20 20 20 20 20 19 19 19 19 18 18 18 18 18 17 17 17 16 16 16 16 15 15 15 14 14 14 14
16 18 18 18 18 19 20 20 19 18 18 18 18 19 20 19 19 20 20 20 19 19 19 18 18 18 18 18 17 17 17 16 16 16 16 15 15 15 14 14 14 14 13 13
14 17 18 17 18 18 18 18 18 18 18 18 18 19 19 19 19 19 19 19 18 18 18 18 17 17 17 17 17 16 16 16 15 15 15 15 14 14 14 14 14 13 13 13
14 15 15 15 16 17 17 17 18 18 18 19 18 18 18 18 18 18 18 18 18 18 17 17 17 17 17 16 16 16 15 15 15 14 14 14 14 14 14 13 13 13 13 12
14 15 15 16 16 17 18 18 18 18 19 19 19 18 18 18 17 18 18 18 17 17 17 17 16 16 16 16 15 15 15 15 14 14 14 13 13 13 13 13 13 12 12 12
14 14 15 16 17 17 18 18 18 18 19 19 19 18 17 17 17 17 17 17 17 17 17 17 16 16 15 15 15 15 14 14 14 13 13 13 13 12 12 12 12 12 11 11
14 14 14 15 17 17 18 18 18 18 18 18 18 17 17 17 17 17 17 16 16 16 16 16 15 15 14 14 14 14 14 14 13 13 13 12 12 12 11 11 11 11 10 10
15 15 16 16 16 17 18 18 18 18 18 17 17 17 17 17 16 16 16 16 16 16 15 15 15 14 14 14 13 14 13 13 13 12 12 12 12 11 11 10 10 10 10 10
15 15 15 15 16 16 17 17 17 17 17 17 17 16 16 16 16 16 16 16 15 15 15 14 14 14 14 13 13 13 13 12 12 12 12 11 11 11 11 10 10 10 9 9
15 16 16 16 16 16 16 16 16 16 16 16 16 16 16 16 15 15 15 15 15 15 14 14 14 13 13 13 13 12 12 12 12 12 11 11 11 10 10 10 10 9 9 9
15 15 15 15 15 15 16 16 15 15 15 15 15 15 15 15 15 15 15 14 14 14 14 13 13 13 12 12 12 12 12 12 11 11 11 10 10 10 10 9 9 9 9 9
15 14 15 15 15 15 15 15 15 15 15 15 15 15 14 14 14 14 14 14 13 13 13 13 13 12 12 12 12 12 11 11 11 11 10 10 10 10 9 9 9 9 8 8
15 15 15 15 15 15 15 15 15 15 15 15 15 14 14 14 14 13 13 13 13 13 12 12 12 12 12 11 11 11 11 11 10 10 10 10 10 9 9 9 9 8 8 8
14 14 14 14 14 14 14 14 14 14 14 14 14 14 14 14 13 13 12 12 12 12 12 11 11 11 11 11 11 11 11 10 10 10 10 10 9 9 9 8 8 8 8 7
14 14 14 14 14 14 14 14 14 13 14 14 14 13 13 13 13 12 12 12 11 11 11 11 11 11 11 11 10 10 10 10 10 10 9 9 9 9 8 8 8 7 7 7
13 13 13 13 13 13 13 13 13 13 13 13 13 13 13 12 12 12 12 11 11 11 11 11 11 11 10 10 10 10 10 10 9 9 9 9 9 8 8 8 7 7 7 7
12 13 13 13 13 13 13 13 13 13 13 13 12 12 12 12 11 11 11 11 11 10 10 10 10 10 10 10 10 9 9 9 9 9 9 8 8 8 8 7 7 7 7 7
12 12 12 12 12 12 12 12 12 12 12 12 12 12 12 11 11 11 11 10 10 10 10 10 10 10 9 9 9 9 9 9 9 8 8 8 8 8 7 7 7 7 6 6
11 12 12 12 12 12 12 12 12 12 11 11 11 11 11 11 11 11 10 10 10 10 10 9 9 9 9 9 9 9 8 8 8 8 8 8 7 7 7 7 7 6 6 6
11 11 11 11 11 11 11 11 11 11 11 11 10 10 10 11 10 10 10 9 9 9 9 9 9 9 9 9 9 8 8 8 8 8 8 8 7 7 7 7 7 6 6 6
11 11 11 11 11 11 11 11 11 11 10 10 10 10 10 10 10 9 9 9 9 9 9 9 9 9 9 8 8 8 8 8 8 8 7 7 7 7 7 7 6 6 6 6
10 10 10 10 10 10 10 10 10 10 10 10 10 9 9 9 9 9 9 9 9 9 9 9 8 8 8 8 8 8 8 8 8 7 7 7 7 7 7 6 6 6 6 6
Wind_Speed
5 4 4 5 7 8 7 9 9 9 9 9 8 6 5 6 7 7 7 7 7 6 5 6 6 4 4 4 4 5 5 5 3 3 4 3 3 3 3 3 3 3 4 4
2 2 4 3 4 7 6 6 6 5 7 6 3 4 6 7 8 8 7 7 7 7 6 6 7 5 5 5 4 5 6 5 5 5 5 4 4 4 5 5 5 6 6 6
3 1 4 1 3 5 5 5 8 8 9 5 6 8 9 9 9 8 8 8 8 7 6 6 6 6 6 6 6 7 7 6 6 6 6 5 5 6 6 5 6 6 6 6
4 4 4 6 2 3 5 3 4 5 5 8 7 5 4 6 8 8 8 8 8 7 7 6 6 7 7 8 8 8 7 6 6 6 6 6 6 6 6 6 6 6 6 6
5 4 2 2 1 2 4 1 2 4 4 7 10 8 3 3 6 7 8 8 7 7 7 8 8 8 9 8 8 8 7 6 6 7 8 8 7 6 6 6 7 6 6 7
5 6 6 6 2 1 4 2 2 4 8 9 9 6 5 6 7 8 8 8 8 8 9 9 7 8 10 9 8 7 6 6 7 7 8 8 8 7 6 7 7 7 8 7
5 3 5 4 4 1 5 6 3 5 8 9 6 5 6 9 9 9 9 9 9 9 8 7 7 9 10 9 7 6 7 8 8 8 8 8 7 7 7 7 7 8 8 7
5 3 5 4 1 4 5 2 2 5 6 6 7 9 10 10 10 10 10 10 9 9 8 6 7 10 10 8 7 7 9 9 8 8 7 7 8 7 7 7 8 7 7 7
6 5 4 3 3 2 1 1 2 4 6 10 10 10 10 10 10 10 10 9 9 10 9 6 6 8 10 7 8 9 10 9 8 8 8 7 7 7 6 6 6 5 6 6
2 1 2 2 2 2 2 2 2 6 8 10 11 10 10 11 10 10 9 9 9 10 9 7 6 7 8 8 8 10 10 8 8 8 8 8 6 6 6 5 6 5 5 5
1 1 2 3 3 3 5 6 7 7 7 9 12 10 10 10 10 9 8 8 8 9 9 8 7 7 7 7 9 10 9 8 8 8 8 8 8 7 6 5 4 6 5 5
4 5 3 2 2 2 6 6 7 8 7 7 8 9 10 9 8 9 8 8 8 8 8 8 8 7 6 6 8 10 9 7 6 6 6 7 8 8 12 10 12 11 8 7
4 2 2 1 1 2 4 5 7 7 8 8 7 8 10 9 7 8 9 9 8 8 8 7 8 7 6 6 8 9 9 7 6 6 6 6 6 7 7 8 13 13 12 11
2 3 3 1 1 3 5 6 8 8 7 7 8 9 10 10 9 8 8 8 8 9 8 8 8 7 5 7 8 9 9 8 7 6 5 6 6 6 6 7 6 6 8 10
0 2 4 3 3 4 5 7 9 7 7 7 8 9 9 10 9 8 7 8 9 9 8 8 8 6 5 7 9 9 8 6 6 6 5 6 6 6 6 7 6 5 4 6
3 4 5 5 5 5 6 7 8 7 7 8 8 8 8 9 9 8 7 8 9 9 7 7 7 5 6 8 8 7 6 10 8 7 6 6 6 6 6 6 5 5 4 3
5 4 4 4 5 5 5 5 6 7 7 8 8 9 9 10 9 8 7 6 7 7 7 7 6 6 6 7 8 7 6 8 10 7 6 6 6 6 5 5 5 4 3 3
4 4 4 5 5 5 5 5 5 6 7 8 9 9 9 9 9 8 7 8 8 7 5 5 6 6 6 7 6 6 6 6 6 6 6 5 5 5 5 5 5 5 4 4
3 3 3 4 5 5 5 5 5 6 7 8 9 9 8 8 9 9 8 8 8 7 4 4 7 7 7 7 7 6 7 7 6 6 5 7 6 5 5 5 5 4 4 4
3 3 3 3 4 5 5 6 6 6 6 8 9 9 9 8 8 9 8 6 4 4 5 6 7 6 6 7 8 6 7 7 7 6 6 6 6 6 5 5 5 4 4 4
3 3 4 4 4 4 5 6 7 7 7 8 9 10 9 8 8 8 8 6 3 5 7 8 7 6 6 7 8 7 7 7 7 6 6 6 6 5 5 5 5 4 4 4
2 2 3 4 5 4 4 5 7 8 8 8 9 9 10 9 9 7 6 5 5 8 7 6 6 8 9 9 7 7 7 7 7 6 6 6 6 5 5 5 4 4 4 3
1 2 3 4 5 6 6 6 7 8 8 9 9 10 10 8 7 8 6 4 6 9 7 6 8 12 12 8 7 7 7 7 6 6 5 5 5 5 5 5 4 4 3 3
2 3 4 5 6 7 7 6 6 7 7 7 7 9 10 9 6 4 6 8 9 10 7 8 12 12 11 7 7 7 6 6 6 6 5 5 5 4 4 4 4 3 3 3
3 4 5 7 6 5 6 8 8 8 9 7 8 7 6 6 7 7 7 8 10 10 8 9 12 11 8 6 6 6 5 5 6 5 5 5 5 4 4 3 3 3 2 2
4 4 4 5 5 5 6 7 7 7 8 8 7 6 7 7 8 8 7 8 9 9 7 6 7 7 6 6 6 6 5 6 5 5 5 4 4 4 3 3 3 2 2 2
4 4 4 5 5 5 6 6 7 7 8 8 8 7 7 8 8 8 8 8 7 7 6 6 6 6 6 6 6 5 5 5 5 5 4 4 4 3 3 3 3 2 2 2
Wind_Direction
207 207 166 161 168 168 168 174 175 212 214 231 218 201 179 152 137 128 128 132 134 133 128 122 116 113 123 121 120 128 129 132 136 127 118 114 110 105 104 110 109 99 90 81
191 202 172 159 174 175 179 175 186 180 233 238 175 143 151 153 148 145 147 143 133 129 126 126 127 130 128 120 121 122 122 124 116 108 106 104 97 92 93 91 87 84 82 80
200 229 112 225 218 178 173 181 169 191 219 179 162 174 174 166 158 157 157 143 135 131 127 126 126 128 124 118 113 114 117 115 111 110 104 98 96 91 92 90 86 82 79 80
134 113 181 240 257 166 157 198 206 207 200 177 171 147 132 148 155 156 148 136 133 129 121 114 109 108 107 105 106 107 106 104 104 107 103 97 92 88 88 89 87 82 76 80
122 143 235 277 157 146 145 251 212 183 154 129 119 93 78 136 147 150 140 132 130 126 118 111 110 114 110 105 104 104 106 106 107 108 104 96 91 86 84 87 82 79 76 77
119 134 202 230 262 257 123 271 245 167 156 150 136 146 196 160 135 126 118 115 116 111 107 109 112 114 109 107 105 105 107 105 100 100 101 98 93 87 84 88 88 86 75 69
125 149 243 260 293 139 155 226 223 169 163 162 174 176 142 129 121 119 113 112 111 109 108 112 116 113 109 107 106 107 105 100 94 93 96 97 91 85 90 92 88 84 80 67
125 138 237 306 18 164 210 257 161 153 151 139 123 113 118 118 118 117 113 110 111 109 103 103 111 114 112 111 111 108 103 99 94 91 92 93 91 84 84 90 89 85 82 72
169 195 248 295 264 280 202 162 154 142 132 132 128 126 123 118 117 114 114 113 111 113 111 100 99 112 116 116 116 112 105 101 97 91 86 88 91 91 84 85 91 89 91 87
111 292 303 324 344 18 74 120 108 128 131 129 129 129 127 124 121 118 116 117 117 116 115 110 102 104 116 121 120 115 111 106 101 97 91 83 78 77 83 85 94 99 98 95
101 284 348 2 25 61 75 88 96 103 114 126 128 129 129 127 126 125 123 121 121 122 124 121 113 106 110 117 118 113 110 106 101 98 99 88 76 64 73 64 92 109 105 101
199 216 179 232 281 96 98 101 107 109 103 109 124 132 129 127 125 125 126 124 122 122 122 120 115 110 107 115 121 120 116 111 109 108 104 101 96 80 63 71 72 75 84 94
198 182 167 182 50 82 102 110 107 107 117 118 116 125 126 123 122 124 127 129 132 131 128 124 119 117 117 118 120 121 124 122 119 117 117 116 113 110 98 70 65 65 68 77
173 131 119 133 123 92 104 105 99 96 99 112 121 122 123 122 124 129 134 135 131 126 124 124 121 121 124 123 121 120 122 124 125 125 125 121 119 118 117 113 98 69 56 67
69 146 153 134 110 101 106 109 107 107 109 110 119 124 128 130 132 131 127 125 124 123 124 125 125 126 125 123 122 125 126 128 126 122 120 119 118 115 112 109 107 100 87 70
91 97 115 121 127 126 122 125 127 130 127 124 122 123 125 126 126 125 127 133 135 138 139 135 133 137 132 128 125 124 126 130 130 127 124 122 121 120 118 116 112 107 101 96
134 146 151 156 153 144 146 149 149 145 138 132 133 128 126 124 123 124 124 124 125 127 131 134 136 135 133 133 132 131 128 132 131 129 130 131 130 130 129 126 123 116 101 86
168 176 173 167 158 146 138 129 128 130 135 134 130 131 134 136 137 135 131 123 115 109 111 125 133 133 131 131 129 130 132 134 135 136 134 130 128 126 124 122 122 117 104 90
122 128 129 137 143 141 135 132 133 133 131 132 135 137 135 134 133 131 128 126 125 126 126 124 128 129 130 132 128 128 131 131 129 127 127 126 122 122 121 120 118 116 115 110
108 123 126 128 124 134 137 137 134 131 134 138 135 132 128 129 130 130 126 123 128 134 137 131 126 121 121 125 123 126 129 130 130 128 127 130 130 129 126 124 126 125 122 118
113 130 134 130 135 140 145 145 143 143 142 143 143 144 140 134 132 132 129 123 108 117 126 125 123 123 120 122 118 121 122 123 125 128 131 132 132 131 131 131 130 128 125 122
113 135 146 144 143 139 138 139 142 141 139 139 137 135 134 133 129 120 113 126 135 128 123 120 119 120 123 120 118 120 121 122 122 123 124 127 131 133 134 134 133 130 130 133
141 141 146 146 143 135 125 128 136 140 141 142 143 143 141 138 139 137 132 128 131 126 121 119 120 119 118 113 115 117 120 121 124 126 127 131 135 137 139 141 142 143 145 152
120 122 130 127 123 124 125 126 126 128 126 127 132 136 135 130 117 104 116 128 128 123 118 121 121 120 117 114 116 119 121 124 126 128 130 133 133 134 139 146 150 153 161 170
122 123 128 128 129 133 130 124 118 119 118 116 114 115 118 124 128 128 123 126 126 120 119 123 122 121 117 117 120 122 126 130 133 133 135 136 137 140 146 153 159 162 167 174
129 126 130 134 134 134 133 129 128 128 126 123 116 115 116 116 118 121 122 124 123 121 121 123 126 124 123 123 124 127 130 131 131 133 139 140 143 145 147 148 151 156 163 167
113 114 117 116 117 124 129 130 131 132 133 132 128 127 127 125 123 124 124 124 124 122 119 120 124 127 127 125 124 125 129 130 132 135 139 143 148 151 152 148 147 144 142 143
Height
1485 1482 1482 1483 1487 1492 1495 1502 1510 1507 1503 1493 1489 1489 1490 1492 1494 1496 1499 1501 1504 1507 1509 1512 1515 1516 1519 1521 1523 1524 1526 1527 1528 1530 1531 1531 1532 1533 1534 1534 1534 1535 1535 1535
1483 1480 1480 1483 1483 1486 1489 1493 1495 1495 1496 1486 1486 1489 1491 1493 1494 1497 1500 1502 1505 1507 1510 1512 1515 1517 1519 1522 1523 1524 1525 1526 1528 1529 1530 1531 1532 1532 1532 1533 1534 1534 1535 1535
1493 1483 1481 1491 1484 1484 1486 1486 1488 1493 1488 1483 1485 1487 1489 1491 1494 1496 1499 1502 1505 1508 1510 1513 1515 1517 1519 1522 1523 1525 1526 1527 1528 1529 1530 1531 1531 1531 1532 1533 1533 1534 1535 1535
1495 1489 1500 1490 1477 1477 1480 1481 1481 1480 1479 1480 1482 1485 1489 1491 1494 1497 1500 1503 1505 1508 1511 1514 1516 1519 1520 1522 1524 1525 1526 1527 1529 1530 1530 1530 1531 1531 1532 1533 1534 1535 1536 1536
1500 1500 1494 1483 1477 1478 1480 1482 1478 1479 1479 1481 1483 1487 1491 1492 1494 1497 1500 1504 1507 1509 1512 1515 1517 1519 1521 1522 1524 1525 1526 1528 1529 1530 1530 1531 1531 1532 1533 1534 1535 1536 1536 1537
1497 1498 1501 1486 1475 1475 1478 1485 1477 1476 1478 1480 1483 1490 1490 1491 1494 1497 1501 1504 1507 1510 1513 1515 1518 1520 1522 1523 1524 1526 1527 1529 1530 1531 1531 1532 1533 1533 1534 1535 1536 1536 1537 1538
1494 1494 1490 1478 1474 1474 1488 1485 1475 1475 1476 1479 1480 1482 1486 1490 1494 1498 1501 1505 1508 1510 1513 1516 1518 1520 1522 1524 1525 1527 1528 1529 1531 1532 1532 1533 1534 1535 1535 1536 1537 1537 1538 1539
1494 1495 1492 1475 1473 1477 1477 1473 1473 1474 1476 1478 1480 1482 1485 1490 1494 1498 1501 1505 1508 1510 1513 1516 1519 1521 1523 1524 1526 1528 1529 1530 1531 1532 1533 1534 1535 1536 1537 1537 1537 1538 1539 1539
1484 1487 1478 1475 1474 1473 1473 1473 1473 1474 1476 1478 1481 1484 1487 1491 1495 1499 1502 1506 1509 1512 1515 1518 1520 1522 1523 1525 1527 1528 1530 1531 1532 1534 1535 1536 1536 1537 1537 1538 1538 1539 1539 1540
1480 1478 1475 1474 1473 1472 1472 1473 1474 1475 1477 1480 1482 1485 1489 1492 1496 1500 1503 1507 1510 1512 1515 1518 1521 1522 1524 1526 1528 1529 1530 1532 1534 1535 1536 1537 1538 1539 1539 1539 1540 1540 1540 1541
1479 1477 1475 1474 1473 1473 1473 1474 1476 1478 1480 1481 1484 1487 1490 1494 1498 1501 1505 1508 1511 1513 1515 1518 1521 1523 1525 1526 1528 1529 1531 1533 1534 1536 1537 1538 1539 1540 1541 1541 1542 1542 1543 1543
1478 1475 1475 1476 1475 1475 1475 1476 1478 1479 1482 1484 1487 1489 1493 1496 1500 1503 1506 1509 1512 1514 1517 1519 1521 1523 1525 1527 1529 1530 1532 1533 1536 1537 1538 1539 1540 1541 1543 1543 1544 1544 1545 1545
1472 1473 1474 1475 1476 1477 1477 1478 1480 1482 1484 1486 1490 1492 1495 1498 1501 1504 1507 1510 1513 1515 1517 1519 1521 1524 1526 1528 1530 1531 1533 1534 1536 1538 1540 1541 1542 1543 1544 1545 1546 1547 1547 1548
1472 1473 1474 1476 1476 1478 1479 1480 1482 1484 1486 1489 1491 1494 1496 1499 1502 1505 1508 1511 1513 1516 1518 1520 1522 1524 1527 1529 1531 1532 1534 1536 1537 1539 1541 1542 1543 1545 1546 1546 1547 1548 1549 1550
1472 1473 1474 1476 1477 1479 1480 1481 1483 1486 1488 1490 1492 1494 1497 1500 1503 1506 1509 1512 1514 1516 1518 1521 1523 1525 1527 1529 1531 1533 1534 1536 1538 1540 1542 1543 1545 1546 1548 1548 1549 1550 1551 1552
1472 1473 1475 1477 1478 1479 1481 1483 1484 1486 1488 1490 1492 1495 1499 1502 1504 1507 1510 1512 1514 1516 1519 1521 1523 1525 1527 1529 1531 1533 1535 1537 1539 1541 1543 1544 1546 1547 1549 1550 1551 1552 1552 1553
1473 1474 1476 1477 1478 1480 1482 1484 1485 1486 1488 1490 1493 1497 1500 1503 1505 1507 1510 1513 1515 1517 1519 1522 1523 1526 1527 1529 1532 1534 1536 1538 1540 1542 1544 1546 1547 1549 1550 1551 1552 1553 1554 1554
1473 1474 1475 1477 1477 1479 1481 1483 1485 1486 1489 1491 1494 1497 1500 1503 1505 1508 1510 1513 1515 1518 1520 1522 1524 1526 1528 1530 1532 1534 1536 1538 1541 1543 1545 1547 1548 1550 1551 1552 1553 1554 1555 1556
1472 1473 1475 1476 1477 1479 1480 1482 1485 1487 1489 1492 1495 1498 1500 1503 1506 1508 1511 1513 1515 1518 1520 1523 1525 1526 1528 1530 1533 1535 1537 1539 1542 1544 1546 1547 1549 1551 1552 1553 1554 1555 1556 1557
1472 1473 1474 1475 1477 1479 1481 1483 1485 1487 1490 1493 1495 1498 1501 1504 1506 1509 1512 1514 1516 1519 1521 1523 1525 1527 1529 1531 1534 1536 1538 1541 1543 1545 1546 1548 1549 1551 1552 1554 1555 1556 1556 1557
1471 1472 1473 1475 1477 1479 1481 1483 1485 1488 1490 1493 1496 1498 1501 1504 1507 1510 1512 1515 1518 1520 1522 1524 1526 1528 1530 1532 1535 1537 1539 1541 1543 1545 1547 1548 1550 1551 1553 1554 1555 1556 1557 1558
1470 1472 1473 1475 1476 1478 1480 1483 1485 1488 1490 1493 1496 1499 1501 1504 1508 1510 1513 1516 1518 1521 1523 1525 1527 1529 1531 1534 1536 1538 1540 1542 1544 1546 1548 1549 1551 1552 1553 1555 1556 1557 1558 1559
1470 1471 1472 1474 1476 1478 1480 1483 1485 1488 1490 1493 1496 1499 1502 1505 1508 1510 1513 1517 1519 1522 1524 1526 1529 1531 1533 1535 1537 1539 1541 1543 1545 1547 1549 1550 1552 1553 1554 1555 1557 1558 1559 1560
1469 1471 1472 1474 1476 1478 1480 1483 1485 1488 1491 1494 1497 1499 1503 1506 1509 1512 1515 1518 1520 1523 1525 1528 1530 1533 1535 1537 1539 1541 1543 1544 1546 1548 1550 1551 1553 1554 1555 1556 1557 1558 1559 1560
1468 1470 1472 1474 1476 1478 1481 1483 1485 1488 1492 1495 1498 1501 1504 1507 1509 1513 1516 1519 1522 1525 1528 1530 1533 1535 1537 1539 1541 1543 1544 1546 1548 1549 1551 1552 1553 1555 1556 1557 1558 1559 1559 1559
1468 1470 1472 1474 1476 1479 1481 1483 1486 1488 1492 1495 1499 1502 1505 1508 1511 1514 1518 1521 1524 1527 1529 1532 1534 1537 1538 1540 1542 1544 1546 1548 1549 1550 1552 1553 1554 1556 1557 1557 1558 1559 1559 1559
1468 1470 1473 1475 1477 1480 1482 1484 1486 1489 1493 1496 1499 1503 1506 1509 1513 1516 1520 1523 1526 1528 1531 1533 1536 1538 1540 1542 1544 1546 1548 1549 1551 1552 1553 1554 1555 1556 1557 1558 1558 1558 1558 1558